Location: Albuquerque Trailhead
(34.7934°N, 106.3736°W)
Time: 02:18:01
(UTC+00:00)

Meteor 1-22 Rocket - Pass Details

Date: 20 June 2021
Orbit: 787 x 941 km, 81.2° (Epoch: 27 July)

Event Time Altitude Azimuth Distance (km) Brightness Sun altitude
Rises 02:57:33 0° 352° (N) 3,519 8.1 -7.0°
Reaches altitude 10° 03:00:04 10° 353° (N) 2,553 7.4 -7.4°
Maximum altitude 03:05:52 84° 81° (E) 867 4.2 -8.4°
Drops below altitude 10° 03:11:24 10° 171° (S) 2,433 6.2 -9.3°
Enters shadow 03:13:21 - 172° (S) 3,186 6.8 -9.6°
